Location: Newark
(35.2672°N, 80.7344°W)
Time: 00:17:45
(UTC+00:00)

Vanguard 2 Rocket - Pass Details

Date: 25 January 2020
Orbit: 553 x 3327 km, 32.9° (Epoch: 24 February)

Event Time Altitude Azimuth Distance (km) Brightness Sun altitude
Rises 16:04:55 0° 274° (W) 4,163 10.0 31.7°
Reaches altitude 10° 16:07:37 10° 265° (W) 3,506 9.8 31.9°
Maximum altitude 16:15:50 34° 204° (SSW) 2,913 10.4 32.6°
Drops below altitude 10° 16:28:51 10° 148° (SSE) 5,547 12.2 33.5°
Sets 16:34:32 0° 140° (SE) 6,910 12.3 33.9°
